Flag for Canada Weather past 2 weeks in Niagara Falls, Ontario, Canada

Now
44 °F

Scattered clouds.


Feels Like: 44 °F
Forecast: 33 / 52 °F
Wind: No wind

Location: Niagara Falls International Airport


UV Index: 5 (Moderate)

Visibility: 9 mi


Pressure: 30.27 "Hg

Humidity: 76%

Dew point: 37 °F

Location of Niagara FallsLocation

Historic Weather in Niagara Falls

°F

Niagara Falls temperature yesterday

Maximum temperature yesterday: 59 °F (at 5:53 PM)
Minimum temperature yesterday: 27 °F (at 5:53 AM)
Average temperature yesterday: 43 °F

Past Weeks' High & Low Weather Summary

 TemperatureHumidityPressure
High74 °F (Apr 13, 1:53 PM)97% (Apr 11, 7:53 AM)30.58 "Hg (Apr 11, 7:53 AM)
Low24 °F (Apr 15, 11:53 PM)27% (Apr 17, 5:53 PM)29.25 "Hg (Apr 8, 5:00 AM)
Average44 °F67%29.96 "Hg
* Reported Apr 3 7:53 PM — Apr 18 7:53 PM, Niagara Falls, Weather by CustomWeather, © 2014

Note: Actual official high and low records may vary slightly from our data, if they occured in-between our weather recording intervals... More about our weather records

Advertising

Historic Weather Conditions — Data for Previous 24 hours

 ConditionsComfort  
Time TempWeatherWind HumidityBarometerVisibility
7:53 PM
Apr 18
46 °FPartly sunny.5 mph79%30.27 "Hg8 mi
6:53 PM49 °FBroken clouds.17 mph66%30.26 "Hg10 mi
5:53 PM50 °FPartly sunny.7 mph63%30.24 "Hg10 mi
4:53 PM52 °FLight rain. Cloudy.10 mph66%30.23 "Hg10 mi
3:53 PM57 °FMore clouds than sun.7 mph47%30.23 "Hg10 mi
2:53 PM57 °FBroken clouds.12 mph44%30.24 "Hg10 mi
1:53 PM57 °FCloudy.5 mph44%30.24 "Hg10 mi
12:53 PM55 °FMostly cloudy.13 mph44%30.26 "Hg10 mi
11:53 AM54 °FCloudy.12 mph43%30.27 "Hg10 mi
10:53 AM53 °FMostly cloudy.8 mph45%30.29 "Hg10 mi
9:53 AM50 °FMostly cloudy.9 mph48%30.30 "Hg10 mi
8:53 AM48 °FOvercast.17 mph50%30.30 "Hg10 mi
7:53 AM45 °FMore clouds than sun.13 mph53%30.29 "Hg10 mi
7:01 AM44 °FPartly cloudy.9 mph53%30.27 "Hg10 mi
5:53 AM44 °FClear.9 mph53%30.28 "Hg10 mi
4:53 AM45 °FClear.9 mph51%30.29 "Hg10 mi
3:53 AM46 °FClear.10 mph48%30.29 "Hg10 mi
2:53 AM47 °FClear.10 mph46%30.32 "Hg10 mi
1:53 AM47 °FClear.12 mph44%30.34 "Hg10 mi
12:53 AM48 °FClear.13 mph43%30.37 "Hg10 mi
11:53 PM
Apr 17
50 °FClear.13 mph39%30.36 "Hg10 mi
10:53 PM49 °FPassing clouds.8 mph43%30.36 "Hg10 mi
9:53 PM47 °FPassing clouds.5 mph61%30.38 "Hg10 mi
Weather by CustomWeather, © 2014

See weather overview